Location: Calvatone
(45.1167°N, 10.4333°E)
Time: 12:43:10
(UTC+00:00)

Cosmos 1140 Rocket - Pass Details

Date: 28 January 2023
Orbit: 744 x 766 km, 74.1° (Epoch: 25 March)

Event Time Altitude Azimuth Distance (km) Brightness Sun altitude
Rises 18:03:24 0° 205° (SSW) 3,204 7.2 -18.3°
Reaches altitude 10° 18:05:46 10° 207° (SSW) 2,279 6.4 -18.7°
Maximum altitude 18:10:56 73° 292° (WNW) 792 3.6 -19.6°
Enters shadow 18:15:57 11° 17° (NNE) 2,222 5.7 -20.5°
